This is the latest recevied weather packets stored in our database for station/object IU0SZS-10. If no packets are shown the sender has not sent any weather packets the latest 10 day(s).
| Time | Temp. | Humidity | Pressure | Rain* | Wind** | Luminosity | Snow |
|---|---|---|---|---|---|---|---|
| 1777635851 | 12.22° C | 40% | 923.6 hPa | - | - | - | - |
| 1777634951 | 12.22° C | 40% | 923.7 hPa | - | - | - | - |
| 1777634051 | 11.11° C | 43% | 923.8 hPa | - | - | - | - |
| 1777633151 | 10° C | 42% | 923.8 hPa | - | - | - | - |
| 1777632250 | 9.44° C | 45% | 923.8 hPa | - | - | - | - |
| 1777631350 | 9.44° C | 47% | 924 hPa | - | - | - | - |
| 1777630450 | 9.44° C | 51% | 924 hPa | - | - | - | - |
| 1777629550 | 9.44° C | 48% | 924 hPa | - | - | - | - |
| 1777628650 | 9.44° C | 49% | 924 hPa | - | - | - | - |
| 1777627750 | 9.44° C | 49% | 924 hPa | - | - | - | - |
| 1777626849 | 9.44° C | 51% | 923.8 hPa | - | - | - | - |
| 1777625949 | 8.89° C | 49% | 924 hPa | - | - | - | - |
| 1777625049 | 8.89° C | 52% | 923.8 hPa | - | - | - | - |
| 1777624149 | 8.89° C | 52% | 923.7 hPa | - | - | - | - |
| 1777623249 | 8.33° C | 52% | 923.6 hPa | - | - | - | - |
| 1777622348 | 7.78° C | 51% | 923.5 hPa | - | - | - | - |
| 1777621448 | 7.22° C | 51% | 923.4 hPa | - | - | - | - |
| 1777620548 | 7.22° C | 49% | 923.4 hPa | - | - | - | - |
| 1777619648 | 6.67° C | 50% | 923.2 hPa | - | - | - | - |
| 1777618748 | 6.67° C | 50% | 923.2 hPa | - | - | - | - |
| 1777617848 | 6.67° C | 52% | 923.2 hPa | - | - | - | - |
| 1777616979 | 6.11° C | 53% | 923 hPa | - | - | - | - |
| 1777616947 | 6.11° C | 53% | 923 hPa | - | - | - | - |
| 1777616047 | 6.11° C | 56% | 922.9 hPa | - | - | - | - |
| 1777615147 | 5.56° C | 59% | 922.8 hPa | - | - | - | - |
* Rain since midnight (hover to see other rain measurements)
** Current wind speed in m/s (hover to see current wind gust speed)